Location: Azul
(36.7830°S, 59.8500°W)
Time: 13:15:58
(UTC-03:00)

ISS - Pass Details

Date: 18 August 2017
Orbit: 401 x 408 km, 51.6° (Epoch: 19 August)

Event Time Altitude Azimuth Distance (km) Brightness Sun altitude
Exits shadow 06:31:46 21° 224° (SW) 1,013 -2.3 -14.0°
Maximum altitude 06:33:54 77° 139° (SE) 429 -3.7 -13.5°
Drops below altitude 10° 06:37:14 10° 53° (NE) 1,480 0.0 -12.9°
Sets 06:39:18 0° 51° (NE) 2,335 1.1 -12.5°
